date,time,SUV Intensity [MED/Hr],UV Index,Daily total [MED],Since Last [MED]
11/10/2022,00:01:22,0.000,0.0,0.0,0.0
11/10/2022,00:02:22,0.000,0.0,0.0,0.0
11/10/2022,00:03:22,0.000,0.0,0.0,0.0
11/10/2022,00:04:22,0.000,0.0,0.0,0.0
11/10/2022,00:05:23,0.000,0.0,0.0,0.0
11/10/2022,00:06:22,0.000,0.0,0.0,0.0
11/10/2022,00:07:22,0.000,0.0,0.0,0.0
11/10/2022,00:08:22,0.000,0.0,0.0,0.0
11/10/2022,00:09:22,0.000,0.0,0.0,0.0
11/10/2022,00:10:22,0.000,0.0,0.0,0.0
11/10/2022,00:11:22,0.000,0.0,0.0,0.0
11/10/2022,00:12:23,0.000,0.0,0.0,0.0
11/10/2022,00:13:22,0.000,0.0,0.0,0.0
11/10/2022,00:14:22,0.000,0.0,0.0,0.0
11/10/2022,00:15:22,0.000,0.0,0.0,0.0
11/10/2022,00:16:22,0.000,0.0,0.0,0.0
11/10/2022,00:17:22,0.000,0.0,0.0,0.0
11/10/2022,00:18:22,0.000,0.0,0.0,0.0
11/10/2022,00:19:23,0.000,0.0,0.0,0.0
11/10/2022,00:20:22,0.000,0.0,0.0,0.0
11/10/2022,00:21:22,0.000,0.0,0.0,0.0
11/10/2022,00:22:22,0.000,0.0,0.0,0.0
11/10/2022,00:23:23,0.000,0.0,0.0,0.0
11/10/2022,00:24:22,0.000,0.0,0.0,0.0
11/10/2022,00:25:22,0.000,0.0,0.0,0.0
11/10/2022,00:26:22,0.000,0.0,0.0,0.0
11/10/2022,00:27:22,0.000,0.0,0.0,0.0
11/10/2022,00:28:22,0.000,0.0,0.0,0.0
11/10/2022,00:29:22,0.000,0.0,0.0,0.0
11/10/2022,00:30:23,0.000,0.0,0.0,0.0
11/10/2022,00:31:22,0.000,0.0,0.0,0.0
11/10/2022,00:32:22,0.000,0.0,0.0,0.0
11/10/2022,00:33:22,0.000,0.0,0.0,0.0
11/10/2022,00:34:22,0.000,0.0,0.0,0.0
11/10/2022,00:35:22,0.000,0.0,0.0,0.0
11/10/2022,00:36:23,0.000,0.0,0.0,0.0
11/10/2022,00:37:22,0.000,0.0,0.0,0.0
11/10/2022,00:38:22,0.000,0.0,0.0,0.0
11/10/2022,00:39:22,0.000,0.0,0.0,0.0
11/10/2022,00:40:22,0.000,0.0,0.0,0.0
11/10/2022,00:41:22,-0.001,0.0,0.0,0.0
11/10/2022,00:42:23,0.000,0.0,0.0,0.0
11/10/2022,00:43:22,0.000,0.0,0.0,0.0
11/10/2022,00:44:22,0.000,0.0,0.0,0.0
11/10/2022,00:45:22,0.000,0.0,0.0,0.0
11/10/2022,00:46:22,0.000,0.0,0.0,0.0
11/10/2022,00:47:23,0.000,0.0,0.0,0.0
11/10/2022,00:48:22,0.000,0.0,0.0,0.0
11/10/2022,00:49:22,0.000,0.0,0.0,0.0
11/10/2022,00:50:22,0.000,0.0,0.0,0.0
11/10/2022,00:51:22,0.000,0.0,0.0,0.0
11/10/2022,00:52:22,0.000,0.0,0.0,0.0
11/10/2022,00:53:22,0.000,0.0,0.0,0.0
11/10/2022,00:54:22,0.000,0.0,0.0,0.0
11/10/2022,00:55:22,0.000,0.0,0.0,0.0
11/10/2022,00:56:22,0.000,0.0,0.0,0.0
11/10/2022,00:57:22,0.000,0.0,0.0,0.0
11/10/2022,00:59:39,0.000,0.0,0.0,0.0
11/10/2022,01:00:22,0.000,0.0,0.0,0.0
11/10/2022,01:01:22,0.000,0.0,0.0,0.0
11/10/2022,01:02:22,0.000,0.0,0.0,0.0
11/10/2022,01:03:23,0.000,0.0,0.0,0.0
11/10/2022,01:04:22,0.000,0.0,0.0,0.0
11/10/2022,01:05:22,0.000,0.0,0.0,0.0
11/10/2022,01:06:22,0.000,0.0,0.0,0.0
11/10/2022,01:07:22,0.000,0.0,0.0,0.0
11/10/2022,01:08:22,0.000,0.0,0.0,0.0
11/10/2022,01:09:22,0.000,0.0,0.0,0.0
11/10/2022,01:10:23,0.000,0.0,0.0,0.0
11/10/2022,01:11:22,0.000,0.0,0.0,0.0
11/10/2022,01:12:22,0.000,0.0,0.0,0.0
11/10/2022,01:13:22,0.000,0.0,0.0,0.0
11/10/2022,01:14:23,0.000,0.0,0.0,0.0
11/10/2022,01:15:22,0.000,0.0,0.0,0.0
11/10/2022,01:16:22,0.000,0.0,0.0,0.0
11/10/2022,01:17:23,0.000,0.0,0.0,0.0
11/10/2022,01:18:23,0.000,0.0,0.0,0.0
11/10/2022,01:19:22,0.000,0.0,0.0,0.0
11/10/2022,01:20:22,0.000,0.0,0.0,0.0
11/10/2022,01:21:22,0.000,0.0,0.0,0.0
11/10/2022,01:22:22,0.000,0.0,0.0,0.0
11/10/2022,01:23:22,0.000,0.0,0.0,0.0
11/10/2022,01:24:22,0.000,0.0,0.0,0.0
11/10/2022,01:25:23,0.000,0.0,0.0,0.0
11/10/2022,01:26:22,0.000,0.0,0.0,0.0
11/10/2022,01:27:22,0.000,0.0,0.0,0.0
11/10/2022,01:28:23,0.000,0.0,0.0,0.0
11/10/2022,01:29:21,0.000,0.0,0.0,0.0
11/10/2022,01:30:23,0.000,0.0,0.0,0.0
11/10/2022,01:31:22,0.000,0.0,0.0,0.0
11/10/2022,01:32:22,0.000,0.0,0.0,0.0
11/10/2022,01:33:22,0.000,0.0,0.0,0.0
11/10/2022,01:34:22,0.000,0.0,0.0,0.0
11/10/2022,01:35:22,0.000,0.0,0.0,0.0
11/10/2022,01:36:22,0.000,0.0,0.0,0.0
11/10/2022,01:37:22,0.000,0.0,0.0,0.0
11/10/2022,01:38:22,0.000,0.0,0.0,0.0
11/10/2022,01:39:22,0.000,0.0,0.0,0.0
11/10/2022,01:40:22,0.000,0.0,0.0,0.0
11/10/2022,01:41:23,0.001,0.0,0.0,0.0
11/10/2022,01:42:22,0.000,0.0,0.0,0.0
11/10/2022,01:43:22,0.000,0.0,0.0,0.0
11/10/2022,01:44:22,0.000,0.0,0.0,0.0
11/10/2022,01:45:22,0.000,0.0,0.0,0.0
11/10/2022,01:46:22,0.000,0.0,0.0,0.0
11/10/2022,01:47:23,0.000,0.0,0.0,0.0
11/10/2022,01:48:22,0.000,0.0,0.0,0.0
11/10/2022,01:49:22,0.000,0.0,0.0,0.0
11/10/2022,01:50:23,0.000,0.0,0.0,0.0
11/10/2022,01:51:22,0.000,0.0,0.0,0.0
11/10/2022,01:52:22,0.000,0.0,0.0,0.0
11/10/2022,01:53:22,0.000,0.0,0.0,0.0
11/10/2022,01:54:23,0.000,0.0,0.0,0.0
11/10/2022,01:55:22,0.000,0.0,0.0,0.0
11/10/2022,01:56:22,0.000,0.0,0.0,0.0
11/10/2022,01:57:22,0.000,0.0,0.0,0.0
11/10/2022,01:58:22,0.000,0.0,0.0,0.0
11/10/2022,01:59:23,0.001,0.0,0.0,0.0
11/10/2022,02:00:22,0.000,0.0,0.0,0.0
11/10/2022,02:01:22,0.000,0.0,0.0,0.0
11/10/2022,02:02:22,0.000,0.0,0.0,0.0
11/10/2022,02:03:23,0.000,0.0,0.0,0.0
11/10/2022,02:04:23,0.000,0.0,0.0,0.0
11/10/2022,02:05:22,0.000,0.0,0.0,0.0
11/10/2022,02:06:22,0.000,0.0,0.0,0.0
11/10/2022,02:07:23,0.000,0.0,0.0,0.0
11/10/2022,02:08:22,0.000,0.0,0.0,0.0
11/10/2022,02:09:23,0.000,0.0,0.0,0.0
11/10/2022,02:10:22,0.000,0.0,0.0,0.0
11/10/2022,02:11:23,0.000,0.0,0.0,0.0
11/10/2022,02:12:23,0.000,0.0,0.0,0.0
11/10/2022,02:13:22,0.000,0.0,0.0,0.0
11/10/2022,02:14:22,0.000,0.0,0.0,0.0
11/10/2022,02:15:22,0.000,0.0,0.0,0.0
11/10/2022,02:16:22,0.000,0.0,0.0,0.0
11/10/2022,02:17:22,0.000,0.0,0.0,0.0
11/10/2022,02:18:22,0.000,0.0,0.0,0.0
11/10/2022,02:19:23,0.000,0.0,0.0,0.0
11/10/2022,02:20:22,0.000,0.0,0.0,0.0
11/10/2022,02:21:22,0.000,0.0,0.0,0.0
11/10/2022,02:22:22,0.000,0.0,0.0,0.0
11/10/2022,02:23:22,0.000,0.0,0.0,0.0
11/10/2022,02:24:23,0.000,0.0,0.0,0.0
11/10/2022,02:25:22,0.000,0.0,0.0,0.0
11/10/2022,02:26:23,0.001,0.0,0.0,0.0
11/10/2022,02:27:22,0.000,0.0,0.0,0.0
11/10/2022,02:28:22,0.000,0.0,0.0,0.0
11/10/2022,02:29:22,0.000,0.0,0.0,0.0
11/10/2022,02:30:23,0.000,0.0,0.0,0.0
11/10/2022,02:31:22,0.000,0.0,0.0,0.0
11/10/2022,02:32:23,0.000,0.0,0.0,0.0
11/10/2022,02:33:22,0.001,0.0,0.0,0.0
11/10/2022,02:34:22,0.000,0.0,0.0,0.0
11/10/2022,02:35:23,0.000,0.0,0.0,0.0
11/10/2022,02:36:22,0.000,0.0,0.0,0.0
11/10/2022,02:37:22,0.000,0.0,0.0,0.0
11/10/2022,02:38:23,0.000,0.0,0.0,0.0
11/10/2022,02:39:22,0.000,0.0,0.0,0.0
11/10/2022,02:40:22,0.000,0.0,0.0,0.0
11/10/2022,02:41:23,0.000,0.0,0.0,0.0
11/10/2022,02:42:22,0.000,0.0,0.0,0.0
11/10/2022,02:43:23,0.000,0.0,0.0,0.0
11/10/2022,02:44:22,0.000,0.0,0.0,0.0
11/10/2022,02:45:22,0.000,0.0,0.0,0.0
11/10/2022,02:46:22,0.000,0.0,0.0,0.0
11/10/2022,02:47:22,0.000,0.0,0.0,0.0
11/10/2022,02:48:22,0.000,0.0,0.0,0.0
11/10/2022,02:49:23,0.000,0.0,0.0,0.0
11/10/2022,02:50:22,0.001,0.0,0.0,0.0
11/10/2022,02:51:23,0.000,0.0,0.0,0.0
11/10/2022,02:52:22,0.000,0.0,0.0,0.0
11/10/2022,02:53:22,0.000,0.0,0.0,0.0
11/10/2022,02:54:23,0.000,0.0,0.0,0.0
11/10/2022,02:55:22,0.000,0.0,0.0,0.0
11/10/2022,02:56:23,0.000,0.0,0.0,0.0
11/10/2022,02:57:22,0.001,0.0,0.0,0.0
11/10/2022,02:58:23,0.001,0.0,0.0,0.0
11/10/2022,02:59:22,0.000,0.0,0.0,0.0
11/10/2022,03:00:22,0.000,0.0,0.0,0.0
11/10/2022,03:01:22,0.001,0.0,0.0,0.0
11/10/2022,03:02:23,-0.001,0.0,0.0,0.0
11/10/2022,03:03:22,0.001,0.0,0.0,0.0
11/10/2022,03:04:22,0.001,0.0,0.0,0.0
11/10/2022,03:05:23,0.001,0.0,0.0,0.0
11/10/2022,03:06:22,0.001,0.0,0.0,0.0
11/10/2022,03:07:22,0.001,0.0,0.0,0.0
11/10/2022,03:08:23,0.001,0.0,0.0,0.0
11/10/2022,03:09:22,0.001,0.0,0.0,0.0
11/10/2022,03:10:22,0.001,0.0,0.0,0.0
11/10/2022,03:11:22,0.000,0.0,0.0,0.0
11/10/2022,03:12:23,0.001,0.0,0.0,0.0
11/10/2022,03:13:22,0.000,0.0,0.0,0.0
11/10/2022,03:14:22,0.001,0.0,0.0,0.0
11/10/2022,03:15:22,0.001,0.0,0.0,0.0
11/10/2022,03:16:22,0.001,0.0,0.0,0.0
11/10/2022,03:17:22,0.001,0.0,0.0,0.0
11/10/2022,03:18:23,0.001,0.0,0.0,0.0
11/10/2022,03:19:22,0.001,0.0,0.0,0.0
11/10/2022,03:20:22,0.001,0.0,0.0,0.0
11/10/2022,03:21:22,0.001,0.0,0.0,0.0
11/10/2022,03:22:22,0.000,0.0,0.0,0.0
11/10/2022,03:23:24,0.000,0.0,0.0,0.0
11/10/2022,03:24:22,0.000,0.0,0.0,0.0
11/10/2022,03:25:23,0.001,0.0,0.0,0.0
11/10/2022,03:26:23,0.001,0.0,0.0,0.0
11/10/2022,03:27:22,0.001,0.0,0.0,0.0
11/10/2022,03:28:22,0.000,0.0,0.0,0.0
11/10/2022,03:29:23,0.001,0.0,0.0,0.0
11/10/2022,03:30:22,0.000,0.0,0.0,0.0
11/10/2022,03:31:22,0.001,0.0,0.0,0.0
11/10/2022,03:32:23,0.001,0.0,0.0,0.0
11/10/2022,03:33:22,0.001,0.0,0.0,0.0
11/10/2022,03:34:22,0.000,0.0,0.0,0.0
11/10/2022,03:35:23,0.001,0.0,0.0,0.0
11/10/2022,03:36:22,0.001,0.0,0.0,0.0
11/10/2022,03:37:22,0.001,0.0,0.0,0.0
11/10/2022,03:38:22,0.001,0.0,0.0,0.0
11/10/2022,03:39:23,0.000,0.0,0.0,0.0
11/10/2022,03:40:22,0.001,0.0,0.0,0.0
11/10/2022,03:41:22,0.002,0.0,0.0,0.0
11/10/2022,03:42:23,0.000,0.0,0.0,0.0
11/10/2022,03:43:23,0.001,0.0,0.0,0.0
11/10/2022,03:44:22,0.001,0.0,0.0,0.0
11/10/2022,03:45:22,0.001,0.0,0.0,0.0
11/10/2022,03:46:23,0.001,0.0,0.0,0.0
11/10/2022,03:47:23,0.001,0.0,0.0,0.0
11/10/2022,03:48:22,0.001,0.0,0.0,0.0
11/10/2022,03:49:23,0.001,0.0,0.0,0.0
11/10/2022,03:50:23,0.001,0.0,0.0,0.0
11/10/2022,03:51:22,0.001,0.0,0.0,0.0
11/10/2022,03:52:22,0.000,0.0,0.0,0.0
11/10/2022,03:53:22,0.001,0.0,0.0,0.0
11/10/2022,03:54:22,0.001,0.0,0.0,0.0
11/10/2022,03:55:22,0.001,0.0,0.0,0.0
11/10/2022,03:56:23,0.001,0.0,0.0,0.0
11/10/2022,03:57:22,0.001,0.0,0.0,0.0
11/10/2022,03:58:22,-0.000,0.0,0.0,0.0
11/10/2022,03:59:23,0.001,0.0,0.0,0.0
11/10/2022,04:00:22,-0.000,0.0,0.0,0.0
11/10/2022,04:01:22,0.000,0.0,0.0,0.0
11/10/2022,04:02:22,0.001,0.0,0.0,0.0
11/10/2022,04:03:23,0.001,0.0,0.0,0.0
11/10/2022,04:04:22,0.000,0.0,0.0,0.0
11/10/2022,04:05:23,0.001,0.0,0.0,0.0
11/10/2022,04:06:22,0.001,0.0,0.0,0.0
11/10/2022,04:07:23,0.001,0.0,0.0,0.0
11/10/2022,04:08:22,0.000,0.0,0.0,0.0
11/10/2022,04:09:22,0.000,0.0,0.0,0.0
11/10/2022,04:10:23,0.000,0.0,0.0,0.0
11/10/2022,04:11:23,0.001,0.0,0.0,0.0
11/10/2022,04:12:24,0.001,0.0,0.0,0.0
11/10/2022,04:13:22,0.001,0.0,0.0,0.0
11/10/2022,04:14:22,0.001,0.0,0.0,0.0
11/10/2022,04:15:22,0.001,0.0,0.0,0.0
11/10/2022,04:16:22,0.002,0.0,0.0,0.0
11/10/2022,04:17:22,0.001,0.0,0.0,0.0
11/10/2022,04:18:22,0.001,0.0,0.0,0.0
11/10/2022,04:19:23,0.001,0.0,0.0,0.0
11/10/2022,04:20:22,0.001,0.0,0.0,0.0
11/10/2022,04:21:23,0.001,0.0,0.0,0.0
11/10/2022,04:22:23,0.000,0.0,0.0,0.0
11/10/2022,04:23:23,0.001,0.0,0.0,0.0
11/10/2022,04:24:22,0.001,0.0,0.0,0.0
11/10/2022,04:25:23,0.000,0.0,0.0,0.0
11/10/2022,04:26:22,0.000,0.0,0.0,0.0
11/10/2022,04:27:22,0.000,0.0,0.0,0.0
11/10/2022,04:28:22,0.002,0.0,0.0,0.0
11/10/2022,04:29:23,0.000,0.0,0.0,0.0
11/10/2022,04:30:22,0.000,0.0,0.0,0.0
11/10/2022,04:31:22,0.001,0.0,0.0,0.0
11/10/2022,04:32:23,0.000,0.0,0.0,0.0
11/10/2022,04:33:22,0.001,0.0,0.0,0.0
11/10/2022,04:34:22,0.000,0.0,0.0,0.0
11/10/2022,04:35:23,0.001,0.0,0.0,0.0
11/10/2022,04:36:22,0.002,0.0,0.0,0.0
11/10/2022,04:37:22,0.001,0.0,0.0,0.0
11/10/2022,04:38:23,0.001,0.0,0.0,0.0
11/10/2022,04:39:22,0.001,0.0,0.0,0.0
11/10/2022,04:40:23,0.000,0.0,0.0,0.0
11/10/2022,04:41:23,0.001,0.0,0.0,0.0
11/10/2022,04:42:22,0.001,0.0,0.0,0.0
11/10/2022,04:43:23,0.002,0.0,0.0,0.0
11/10/2022,04:44:22,0.001,0.0,0.0,0.0
11/10/2022,04:45:22,0.001,0.0,0.0,0.0
11/10/2022,04:46:23,0.001,0.0,0.0,0.0
11/10/2022,04:47:22,0.001,0.0,0.0,0.0
11/10/2022,04:48:22,0.001,0.0,0.0,0.0
11/10/2022,04:49:23,0.000,0.0,0.0,0.0
11/10/2022,04:50:22,0.001,0.0,0.0,0.0
11/10/2022,04:51:22,0.001,0.0,0.0,0.0
11/10/2022,04:52:23,0.002,0.0,0.0,0.0
11/10/2022,04:53:23,0.001,0.0,0.0,0.0
11/10/2022,04:54:23,0.001,0.0,0.0,0.0
11/10/2022,04:55:23,0.001,0.0,0.0,0.0
11/10/2022,04:56:23,0.001,0.0,0.0,0.0
11/10/2022,04:57:22,0.001,0.0,0.0,0.0
11/10/2022,04:58:23,0.001,0.0,0.0,0.0
11/10/2022,04:59:22,0.000,0.0,0.0,0.0
11/10/2022,05:00:22,0.001,0.0,0.0,0.0
11/10/2022,05:01:23,0.000,0.0,0.0,0.0
11/10/2022,05:02:22,0.001,0.0,0.0,0.0
11/10/2022,05:03:22,0.001,0.0,0.0,0.0
11/10/2022,05:04:23,0.001,0.0,0.0,0.0
11/10/2022,05:05:22,0.001,0.0,0.0,0.0
11/10/2022,05:06:22,0.001,0.0,0.0,0.0
11/10/2022,05:07:23,0.001,0.0,0.0,0.0
11/10/2022,05:08:23,0.001,0.0,0.0,0.0
11/10/2022,05:09:22,0.001,0.0,0.0,0.0
11/10/2022,05:10:22,0.001,0.0,0.0,0.0
11/10/2022,05:11:22,0.001,0.0,0.0,0.0
11/10/2022,05:12:22,0.001,0.0,0.0,0.0
11/10/2022,05:13:23,0.001,0.0,0.0,0.0
11/10/2022,05:14:22,0.001,0.0,0.0,0.0
11/10/2022,05:15:23,0.001,0.0,0.0,0.0
11/10/2022,05:16:22,0.001,0.0,0.0,0.0
11/10/2022,05:17:23,0.001,0.0,0.0,0.0
11/10/2022,05:18:23,0.001,0.0,0.0,0.0
11/10/2022,05:19:22,0.002,0.0,0.0,0.0
11/10/2022,05:20:23,0.001,0.0,0.0,0.0
11/10/2022,05:21:23,0.001,0.0,0.0,0.0
11/10/2022,05:22:23,0.001,0.0,0.0,0.0
11/10/2022,05:23:23,0.001,0.0,0.0,0.0
11/10/2022,05:24:22,0.001,0.0,0.0,0.0
11/10/2022,05:25:23,0.001,0.0,0.0,0.0
11/10/2022,05:26:22,0.001,0.0,0.0,0.0
11/10/2022,05:27:23,0.002,0.0,0.0,0.0
11/10/2022,05:28:23,0.000,0.0,0.0,0.0
11/10/2022,05:29:26,0.001,0.0,0.0,0.0
11/10/2022,05:30:26,0.002,0.0,0.0,0.0
11/10/2022,05:31:24,0.001,0.0,0.0,0.0
11/10/2022,05:32:22,0.001,0.0,0.0,0.0
11/10/2022,05:33:22,0.001,0.0,0.0,0.0
11/10/2022,05:34:22,0.001,0.0,0.0,0.0
11/10/2022,05:35:23,0.001,0.0,0.0,0.0
11/10/2022,05:36:23,0.000,0.0,0.0,0.0
11/10/2022,05:37:23,0.001,0.0,0.0,0.0
11/10/2022,05:38:22,0.001,0.0,0.0,0.0
11/10/2022,05:39:22,0.000,0.0,0.0,0.0
11/10/2022,05:40:23,0.001,0.0,0.0,0.0
11/10/2022,05:41:22,0.001,0.0,0.0,0.0
11/10/2022,05:42:22,0.000,0.0,0.0,0.0
11/10/2022,05:43:22,0.001,0.0,0.0,0.0
11/10/2022,05:44:23,0.001,0.0,0.0,0.0
11/10/2022,05:45:22,0.001,0.0,0.0,0.0
11/10/2022,05:46:23,0.001,0.0,0.0,0.0
11/10/2022,05:47:23,0.001,0.0,0.0,0.0
11/10/2022,05:48:22,0.001,0.0,0.0,0.0
11/10/2022,05:49:22,0.001,0.0,0.0,0.0
11/10/2022,05:50:23,0.002,0.0,0.0,0.0
11/10/2022,05:51:22,0.001,0.0,0.0,0.0
11/10/2022,05:52:22,0.001,0.0,0.0,0.0
11/10/2022,05:53:23,0.000,0.0,0.0,0.0
11/10/2022,05:54:22,0.002,0.0,0.0,0.0
11/10/2022,05:55:23,0.001,0.0,0.0,0.0
11/10/2022,05:56:23,0.000,0.0,0.0,0.0
11/10/2022,05:57:22,0.001,0.0,0.0,0.0
11/10/2022,05:58:22,0.001,0.0,0.0,0.0
11/10/2022,05:59:23,0.001,0.0,0.0,0.0
11/10/2022,06:00:22,0.001,0.0,0.0,0.0
11/10/2022,06:01:23,0.001,0.0,0.0,0.0
11/10/2022,06:02:23,0.001,0.0,0.0,0.0
11/10/2022,06:03:23,0.001,0.0,0.0,0.0
11/10/2022,06:04:23,0.001,0.0,0.0,0.0
11/10/2022,06:05:22,0.001,0.0,0.0,0.0
11/10/2022,06:06:23,0.001,0.0,0.0,0.0
11/10/2022,06:07:22,0.001,0.0,0.0,0.0
11/10/2022,06:08:23,0.002,0.0,0.0,0.0
11/10/2022,06:09:22,0.001,0.0,0.0,0.0
11/10/2022,06:10:23,0.002,0.0,0.0,0.0
11/10/2022,06:11:23,0.002,0.0,0.0,0.0
11/10/2022,06:12:23,0.002,0.0,0.0,0.0
11/10/2022,06:13:22,0.002,0.0,0.0,0.0
11/10/2022,06:14:23,0.003,0.0,0.0,0.0
11/10/2022,06:15:22,0.002,0.0,0.0,0.0
11/10/2022,06:16:22,0.002,0.0,0.0,0.0
11/10/2022,06:17:23,0.003,0.0,0.0,0.0
11/10/2022,06:18:22,0.003,0.0,0.0,0.0
11/10/2022,06:19:22,0.003,0.0,0.0,0.0
11/10/2022,06:20:22,0.003,0.0,0.0,0.0
11/10/2022,06:21:23,0.002,0.0,0.0,0.0
11/10/2022,06:22:23,0.003,0.0,0.0,0.0
11/10/2022,06:23:23,0.004,0.0,0.0,0.0
11/10/2022,06:24:23,0.003,0.0,0.0,0.0
11/10/2022,06:25:23,0.004,0.0,0.0,0.0
11/10/2022,06:26:22,0.004,0.0,0.0,0.0
11/10/2022,06:27:23,0.004,0.0,0.0,0.0
11/10/2022,06:28:22,0.005,0.0,0.0,0.0
11/10/2022,06:29:23,0.005,0.0,0.0,0.0
11/10/2022,06:30:22,0.004,0.0,0.0,0.0
11/10/2022,06:31:23,0.006,0.0,0.0,0.0
11/10/2022,06:32:22,0.005,0.0,0.0,0.0
11/10/2022,06:33:22,0.006,0.0,0.0,0.0
11/10/2022,06:34:23,0.008,0.0,0.0,0.0
11/10/2022,06:35:23,0.007,0.0,0.0,0.0
11/10/2022,06:36:23,0.007,0.0,0.0,0.0
11/10/2022,06:37:23,0.008,0.0,0.0,0.0
11/10/2022,06:38:22,0.008,0.0,0.001,0.001
11/10/2022,06:39:23,0.008,0.0,0.001,0.0
11/10/2022,06:40:23,0.008,0.0,0.001,0.0
11/10/2022,06:41:23,0.009,0.0,0.001,0.0
11/10/2022,06:42:23,0.009,0.0,0.001,0.0
11/10/2022,06:43:22,0.010,0.0,0.001,0.0
11/10/2022,06:44:23,0.011,0.0,0.002,0.001
11/10/2022,06:45:23,0.011,0.0,0.002,0.0
11/10/2022,06:46:23,0.011,0.0,0.002,0.0
11/10/2022,06:47:23,0.013,0.0,0.002,0.0
11/10/2022,06:48:23,0.013,0.0,0.002,0.0
11/10/2022,06:49:23,0.013,0.0,0.003,0.001
11/10/2022,06:50:22,0.013,0.0,0.003,0.0
11/10/2022,06:51:23,0.014,0.0,0.003,0.0
11/10/2022,06:52:23,0.014,0.0,0.003,0.0
11/10/2022,06:53:22,0.016,0.0,0.003,0.0
11/10/2022,06:54:23,0.015,0.0,0.004,0.001
11/10/2022,06:55:23,0.017,0.0,0.004,0.0
11/10/2022,06:56:23,0.017,0.0,0.004,0.0
11/10/2022,06:57:23,0.018,0.0,0.005,0.001
11/10/2022,06:58:23,0.019,0.0,0.005,0.0
11/10/2022,06:59:23,0.019,0.0,0.005,0.0
11/10/2022,07:00:22,0.020,0.0,0.006,0.001
11/10/2022,07:01:23,0.021,0.0,0.006,0.0
11/10/2022,07:02:22,0.021,0.0,0.006,0.0
11/10/2022,07:03:22,0.022,0.0,0.007,0.001
11/10/2022,07:04:23,0.023,0.0,0.007,0.0
11/10/2022,07:05:23,0.024,0.0,0.007,0.0
11/10/2022,07:06:23,0.024,0.0,0.008,0.001
11/10/2022,07:07:23,0.025,0.0,0.008,0.0
11/10/2022,07:08:22,0.026,0.0,0.009,0.001
11/10/2022,07:09:22,0.028,0.0,0.009,0.0
11/10/2022,07:10:23,0.028,0.0,0.009,0.0
11/10/2022,07:11:22,0.028,0.0,0.01,0.001
11/10/2022,07:12:23,0.030,0.0,0.01,0.0
11/10/2022,07:13:23,0.031,0.0,0.011,0.001
11/10/2022,07:14:22,0.032,0.0,0.011,0.0
11/10/2022,07:15:22,0.033,0.0,0.012,0.001
11/10/2022,07:16:23,0.034,0.0,0.013,0.001
11/10/2022,07:17:23,0.035,0.0,0.013,0.0
11/10/2022,07:18:23,0.036,0.0,0.014,0.001
11/10/2022,07:19:23,0.037,0.0,0.014,0.0
11/10/2022,07:20:23,0.038,0.0,0.015,0.001
11/10/2022,07:21:23,0.040,0.0,0.016,0.001
11/10/2022,07:22:23,0.040,0.0,0.016,0.0
11/10/2022,07:23:22,0.041,0.0,0.017,0.001
11/10/2022,07:24:23,0.042,0.0,0.018,0.001
11/10/2022,07:25:23,0.043,0.0,0.018,0.0
11/10/2022,07:26:23,0.045,0.0,0.019,0.001
11/10/2022,07:27:23,0.046,0.0,0.02,0.001
11/10/2022,07:28:23,0.047,0.0,0.021,0.001
11/10/2022,07:29:23,0.049,0.0,0.021,0.0
11/10/2022,07:30:23,0.050,0.0,0.022,0.001
11/10/2022,07:31:23,0.050,0.0,0.023,0.001
11/10/2022,07:32:23,0.053,0.0,0.024,0.001
11/10/2022,07:33:23,0.054,0.0,0.025,0.001
11/10/2022,07:34:23,0.055,0.0,0.026,0.001
11/10/2022,07:35:23,0.057,0.0,0.027,0.001
11/10/2022,07:36:22,0.058,0.0,0.028,0.001
11/10/2022,07:37:22,0.059,0.0,0.029,0.001
11/10/2022,07:38:23,0.060,0.0,0.03,0.001
11/10/2022,07:39:23,0.063,0.0,0.031,0.001
11/10/2022,07:40:23,0.063,0.0,0.032,0.001
11/10/2022,07:41:23,0.065,0.0,0.033,0.001
11/10/2022,07:42:22,0.067,0.0,0.034,0.001
11/10/2022,07:43:22,0.069,0.0,0.035,0.001
11/10/2022,07:44:23,0.071,0.0,0.036,0.001
11/10/2022,07:45:22,0.072,0.0,0.037,0.001
11/10/2022,07:46:22,0.073,0.0,0.039,0.002
11/10/2022,07:47:22,0.076,0.0,0.04,0.001
11/10/2022,07:48:23,0.077,0.0,0.041,0.001
11/10/2022,07:49:23,0.079,0.0,0.042,0.001
11/10/2022,07:50:23,0.080,0.0,0.044,0.002
11/10/2022,07:51:23,0.082,0.0,0.045,0.001
11/10/2022,07:52:22,0.084,0.0,0.046,0.001
11/10/2022,07:53:22,0.086,0.0,0.048,0.002
11/10/2022,07:54:23,0.088,0.0,0.049,0.001
11/10/2022,07:55:22,0.090,0.0,0.051,0.002
11/10/2022,07:56:23,0.092,0.0,0.052,0.001
11/10/2022,07:57:23,0.093,0.0,0.054,0.002
11/10/2022,07:58:24,0.095,0.0,0.056,0.002
11/10/2022,07:59:23,0.098,0.0,0.057,0.001
11/10/2022,08:00:23,0.100,0.0,0.059,0.002
11/10/2022,08:01:23,0.101,0.0,0.06,0.001
11/10/2022,08:02:23,0.104,0.0,0.062,0.002
11/10/2022,08:03:23,0.105,0.0,0.064,0.002
11/10/2022,08:04:23,0.108,0.0,0.066,0.002
11/10/2022,08:05:23,0.111,0.0,0.067,0.001
11/10/2022,08:06:23,0.113,0.0,0.069,0.002
11/10/2022,08:07:22,0.115,0.0,0.071,0.002
11/10/2022,08:08:23,0.118,0.0,0.073,0.002
11/10/2022,08:09:23,0.119,0.0,0.075,0.002
11/10/2022,08:10:27,0.122,0.0,0.077,0.002
11/10/2022,08:11:24,0.124,0.0,0.079,0.002
11/10/2022,08:12:23,0.126,0.0,0.081,0.002
11/10/2022,08:13:23,0.128,0.0,0.083,0.002
11/10/2022,08:14:23,0.131,0.0,0.086,0.003
11/10/2022,08:15:23,0.132,0.0,0.088,0.002
11/10/2022,08:16:23,0.135,0.0,0.09,0.002
11/10/2022,08:17:23,0.139,0.0,0.092,0.002
11/10/2022,08:18:23,0.140,0.0,0.095,0.003
11/10/2022,08:19:23,0.142,0.0,0.097,0.002
11/10/2022,08:20:23,0.144,0.0,0.099,0.002
11/10/2022,08:21:23,0.146,0.0,0.102,0.003
11/10/2022,08:22:23,0.149,0.0,0.104,0.002
11/10/2022,08:23:23,0.153,0.0,0.107,0.003
11/10/2022,08:24:23,0.155,0.0,0.109,0.002
11/10/2022,08:25:23,0.158,0.0,0.112,0.003
11/10/2022,08:26:23,0.160,0.0,0.115,0.003
11/10/2022,08:27:23,0.162,0.0,0.117,0.002
11/10/2022,08:28:22,0.166,0.0,0.12,0.003
11/10/2022,08:29:23,0.169,0.0,0.123,0.003
11/10/2022,08:30:23,0.172,0.0,0.126,0.003
11/10/2022,08:31:23,0.173,0.0,0.129,0.003
11/10/2022,08:32:23,0.176,0.0,0.131,0.002
11/10/2022,08:33:22,0.179,0.0,0.134,0.003
11/10/2022,08:34:23,0.183,0.0,0.137,0.003
11/10/2022,08:35:23,0.185,0.0,0.14,0.003
11/10/2022,08:36:23,0.188,0.0,0.144,0.004
11/10/2022,08:37:23,0.190,0.0,0.147,0.003
11/10/2022,08:38:23,0.193,0.0,0.15,0.003
11/10/2022,08:39:23,0.197,0.0,0.153,0.003
11/10/2022,08:40:23,0.200,0.0,0.156,0.003
11/10/2022,08:41:23,0.203,0.0,0.16,0.004
11/10/2022,08:42:23,0.205,0.0,0.163,0.003
11/10/2022,08:43:23,0.209,0.0,0.167,0.004
11/10/2022,08:44:23,0.212,0.0,0.17,0.003
11/10/2022,08:45:23,0.215,0.0,0.174,0.004
11/10/2022,08:46:23,0.219,1.0,0.177,0.003
11/10/2022,08:47:23,0.220,1.0,0.181,0.004
11/10/2022,08:48:23,0.223,1.0,0.185,0.004
11/10/2022,08:49:23,0.227,1.0,0.189,0.004
11/10/2022,08:50:23,0.230,1.0,0.192,0.003
11/10/2022,08:51:23,0.233,1.0,0.196,0.004
11/10/2022,08:52:23,0.237,1.0,0.2,0.004
11/10/2022,08:53:22,0.239,1.0,0.204,0.004
11/10/2022,08:54:23,0.243,1.0,0.208,0.004
11/10/2022,08:55:23,0.246,1.0,0.212,0.004
11/10/2022,08:56:23,0.250,1.0,0.216,0.004
11/10/2022,08:57:23,0.253,1.0,0.221,0.005
11/10/2022,08:58:23,0.255,1.0,0.225,0.004
11/10/2022,08:59:23,0.259,1.0,0.229,0.004
11/10/2022,09:00:23,0.263,1.0,0.233,0.004
11/10/2022,09:01:22,0.266,1.0,0.238,0.005
11/10/2022,09:02:23,0.269,1.0,0.242,0.004
11/10/2022,09:03:23,0.273,1.0,0.247,0.005
11/10/2022,09:04:22,0.275,1.0,0.251,0.004
11/10/2022,09:05:23,0.280,1.0,0.256,0.005
11/10/2022,09:06:23,0.283,1.0,0.261,0.005
11/10/2022,09:07:23,0.286,1.0,0.265,0.004
11/10/2022,09:08:23,0.292,1.0,0.27,0.005
11/10/2022,09:09:23,0.293,1.0,0.275,0.005
11/10/2022,09:10:23,0.295,1.0,0.28,0.005
11/10/2022,09:11:23,0.299,1.0,0.285,0.005
11/10/2022,09:12:23,0.303,1.0,0.29,0.005
11/10/2022,09:13:23,0.307,1.0,0.295,0.005
11/10/2022,09:14:23,0.310,1.0,0.3,0.005
11/10/2022,09:15:23,0.314,1.0,0.305,0.005
11/10/2022,09:16:23,0.318,1.0,0.311,0.006
11/10/2022,09:17:23,0.321,1.0,0.316,0.005
11/10/2022,09:18:23,0.324,1.0,0.321,0.005
11/10/2022,09:19:23,0.327,1.0,0.327,0.006
11/10/2022,09:20:23,0.331,1.0,0.332,0.005
11/10/2022,09:21:23,0.335,1.0,0.338,0.006
11/10/2022,09:22:23,0.338,1.0,0.344,0.006
11/10/2022,09:23:23,0.342,1.0,0.349,0.005
11/10/2022,09:24:23,0.346,1.0,0.355,0.006
11/10/2022,09:25:23,0.349,1.0,0.361,0.006
11/10/2022,09:26:23,0.352,1.0,0.367,0.006
11/10/2022,09:27:23,0.357,1.0,0.372,0.005
11/10/2022,09:28:23,0.361,1.0,0.378,0.006
11/10/2022,09:29:23,0.365,1.0,0.384,0.006
11/10/2022,09:30:23,0.371,1.0,0.391,0.007
11/10/2022,09:31:23,0.372,1.0,0.397,0.006
11/10/2022,09:32:23,0.378,1.0,0.403,0.006
11/10/2022,09:33:23,0.382,1.0,0.409,0.006
11/10/2022,09:34:23,0.385,1.0,0.416,0.007
11/10/2022,09:35:23,0.389,1.0,0.422,0.006
11/10/2022,09:36:23,0.394,1.0,0.429,0.007
11/10/2022,09:37:23,0.398,1.0,0.435,0.006
11/10/2022,09:38:23,0.403,1.0,0.442,0.007
11/10/2022,09:39:23,0.405,1.0,0.449,0.007
11/10/2022,09:40:23,0.409,1.0,0.455,0.006
11/10/2022,09:41:22,0.413,1.0,0.462,0.007
11/10/2022,09:42:23,0.417,1.0,0.469,0.007
11/10/2022,09:43:23,0.420,1.0,0.476,0.007
11/10/2022,09:44:23,0.425,1.0,0.483,0.007
11/10/2022,09:45:23,0.428,1.0,0.49,0.007
11/10/2022,09:46:23,0.431,1.0,0.498,0.008
11/10/2022,09:47:23,0.434,1.0,0.505,0.007
11/10/2022,09:48:23,0.437,1.0,0.512,0.007
11/10/2022,09:49:23,0.441,1.0,0.519,0.007
11/10/2022,09:50:23,0.442,1.0,0.527,0.008
11/10/2022,09:51:23,0.446,1.0,0.534,0.007
11/10/2022,09:52:23,0.450,1.0,0.542,0.008
11/10/2022,09:53:23,0.451,1.0,0.549,0.007
11/10/2022,09:54:23,0.452,1.0,0.557,0.008
11/10/2022,09:55:23,0.458,1.0,0.564,0.007
11/10/2022,09:56:23,0.459,1.0,0.572,0.008
11/10/2022,09:57:23,0.463,1.0,0.579,0.007
11/10/2022,09:58:23,0.467,1.0,0.587,0.008
11/10/2022,09:59:23,0.468,1.0,0.595,0.008
11/10/2022,10:00:23,0.471,1.0,0.603,0.008
11/10/2022,10:01:23,0.475,1.0,0.611,0.008
11/10/2022,10:02:23,0.480,1.0,0.619,0.008
11/10/2022,10:03:23,0.485,1.0,0.627,0.008
11/10/2022,10:04:23,0.485,1.0,0.635,0.008
11/10/2022,10:05:23,0.489,1.0,0.643,0.008
11/10/2022,10:06:23,0.493,1.0,0.651,0.008
11/10/2022,10:07:23,0.496,1.0,0.66,0.009
11/10/2022,10:08:23,0.499,1.0,0.668,0.008
11/10/2022,10:09:23,0.501,1.0,0.676,0.008
11/10/2022,10:10:23,0.507,1.0,0.685,0.009